{"data":{"norad_id":62509,"intl_designator":"2025-003Y","name":"STARLINK-32744","alt_names":[],"object_type":"PAYLOAD","status":"ACTIVE","operator":null,"country":"US","launch_date":"2025-01-06","launch_site_code":"AFETR","launch_vehicle":null,"mission":null,"orbit_class":"UNKNOWN","rcs_meters":null,"size_class":null,"mass_kg":null,"dimensions":null,"purposes":["comms"],"wikipedia_slug":null,"has_3d_model":false,"image_url":null,"decayed_at":null,"tle_current":{"epoch":"2026-05-25T05:28:49.433088Z","epoch_age_seconds":49282,"freshness":"FRESH","line1":"1 62509U 25003Y   26145.22834992  .00010895  00000+0  40479-3 0  9998","line2":"2 62509  42.9989 217.0247 0001246 274.4906  85.5803 15.27584825 78251","mean_motion":15.27584825,"eccentricity":0.0001246,"inclination_deg":42.9989,"raan_deg":217.0247,"arg_perigee_deg":274.4906,"mean_anomaly_deg":85.5803,"bstar":0.00040479,"rev_number":7825,"period_min":94.266450964515,"perigee_km":482.17974630452,"apogee_km":483.88955027927,"semimajor_km":6861.1716482919,"source":"CELESTRAK","updated_at":"2026-05-25T13:38:19.701067Z"}}}